This demonstration page uses our WeatherBlox Daily Observations layout. Learn more.

Left ArrowRight Arrow

Hourly Observations for September 23, 2020

Temp ( °F °C ) Dew Point ( °F °C ) Humidity (%) Winds ( mph kmh ) Pressure ( in mb ) Visibility ( mi km ) Precip ( " mm )
12:51 am 00:51 Clear 74 23.3 42 5.6 32 32 NW 8 13 29.88 1012 10 16.0934 0 0
1:51 am 01:51 Clear 76 24.4 42 5.6 30 30 NW 10 17 29.88 1012 10 16.0934 0 0
2:51 am 02:51 Clear 78 25.6 43 6.1 29 29 NW 10 17 29.87 1012 10 16.0934 0 0
3:51 am 03:51 Clear 72 22.2 43 6.1 35 35 NNW 7 11 29.88 1012 10 16.0934 0 0
4:51 am 04:51 Clear 71 21.7 43 6.1 36 36 NNW 5 7 29.9 1013 10 16.0934 0 0
5:51 am 05:51 Clear 68 20 42 5.6 39 39 S 3 6 29.93 1013 10 16.0934 0 0
6:51 am 06:51 Sunny 67 19.4 41 5 39 39 SSE 5 7 29.94 1014 10 16.0934 0 0
7:51 am 07:51 Sunny 72 22.2 43 6.1 35 35 Calm 29.95 1014 10 16.0934 0 0
8:51 am 08:51 Sunny 80 26.7 44 6.7 28 28 Calm 29.94 1014 10 16.0934 0 0
9:51 am 09:51 Sunny 87 30.6 46 7.8 24 24 W 7 11 29.92 1013 10 16.0934 0 0
10:51 am 10:51 Sunny 91 32.8 46 7.8 21 21 WNW 9 15 29.9 1012 10 16.0934 0 0
11:51 am 11:51 Sunny 94 34.4 43 6.1 17 17 W 7 11 29.87 1011 10 16.0934 0 0
12:51 pm 12:51 Sunny 94 34.4 42 5.6 17 17 W 6 9 29.84 1011 10 16.0934 0 0
1:51 pm 13:51 Sunny 96 35.6 42 5.6 15 15 WNW 8 13 29.81 1009 10 16.0934 0 0
2:51 pm 14:51 Sunny 96 35.6 42 5.6 15 15 W 15 24 29.79 1009 10 16.0934 0 0
3:51 pm 15:51 Sunny 96 35.6 41 5 15 15 W 13 20 29.78 1008 10 16.0934 0 0
4:51 pm 16:51 Mostly Cloudy 97 36.1 41 5 14 14 NW 16 26 29.78 1009 10 16.0934 0 0
5:01 pm 17:01 Mostly Cloudy 92 33.3 44 6.7 19 19 NNW 26 43 29.69 1005 8 12.87472 0 0
5:51 pm 17:51 Sunny 91 32.8 42 5.6 18 18 NE 7 11 29.8 1009 10 16.0934 0 0
6:51 pm 18:51 Clear 87 30.6 44 6.7 22 22 Calm 29.81 1010 10 16.0934 0 0
7:51 pm 19:51 Clear 82 27.8 43 6.1 25 25 SSE 3 6 29.83 1010 10 16.0934 0 0
8:51 pm 20:51 Clear 81 27.2 42 5.6 25 25 WNW 7 11 29.83 1010 10 16.0934 0 0
9:51 pm 21:51 Clear 79 26.1 42 5.6 27 27 NNW 7 11 29.83 1010 10 16.0934 0 0
10:51 pm 22:51 Clear 77 25 41 5 28 28 NW 9 15 29.82 1010 10 16.0934 0 0
11:51 pm 23:51 Clear 75 23.9 41 5 29 29 NW 8 13 29.82 1010 10 16.0934 0 0

Powered by AerisWeather